Time,TemperatureF,DewpointF,PressureIn,WindDirection,WindDirectionDegrees,WindSpeedMPH,WindSpeedGustMPH,Humidity,HourlyPrecipIn,Conditions,Clouds,dailyrainin,SoftwareType,DateUTC
2013-04-04 00:00:00,34.5,16.4,30.32,NNE,26,0.0,4.0,47,0.00,,---,0.00,VWS V14.01,2013-04-04 04:00:00,
2013-04-04 00:05:00,34.4,16.8,30.33,NNE,28,0.0,4.0,48,0.00,,---,0.00,VWS V14.01,2013-04-04 04:05:00,
2013-04-04 00:10:00,34.1,17.0,30.32,NNE,26,2.0,4.0,49,0.00,,---,0.00,VWS V14.01,2013-04-04 04:10:00,
2013-04-04 00:15:00,33.1,17.0,30.33,NNE,24,0.0,4.0,51,0.00,,---,0.00,VWS V14.01,2013-04-04 04:15:00,
2013-04-04 00:20:00,32.5,16.9,30.33,NNE,24,3.0,4.0,52,0.00,,---,0.00,VWS V14.01,2013-04-04 04:20:00,
2013-04-04 00:25:00,31.5,17.2,30.32,NNW,348,6.0,8.0,55,0.00,,---,0.00,VWS V14.01,2013-04-04 04:25:00,
2013-04-04 00:30:00,31.3,17.4,30.33,North,355,2.0,6.0,56,0.00,,---,0.00,VWS V14.01,2013-04-04 04:30:00,
2013-04-04 00:35:00,31.9,17.6,30.33,North,355,0.0,1.0,55,0.00,,---,0.00,VWS V14.01,2013-04-04 04:35:00,
2013-04-04 00:40:00,31.9,17.6,30.33,North,355,1.0,4.0,55,0.00,,---,0.00,VWS V14.01,2013-04-04 04:40:00,
2013-04-04 00:45:00,31.5,17.6,30.33,North,355,0.0,0.0,56,0.00,,---,0.00,VWS V14.01,2013-04-04 04:45:00,
2013-04-04 00:50:00,31.9,17.6,30.33,North,355,1.0,1.0,55,0.00,,---,0.00,VWS V14.01,2013-04-04 04:50:00,
2013-04-04 00:55:00,31.6,17.7,30.33,North,355,1.0,1.0,56,0.00,,---,0.00,VWS V14.01,2013-04-04 04:55:00,
2013-04-04 01:00:00,31.1,17.7,30.33,North,355,0.0,4.0,57,0.00,,---,0.00,VWS V14.01,2013-04-04 05:00:00,
2013-04-04 01:05:00,30.9,17.5,30.33,North,355,0.0,0.0,57,0.00,,---,0.00,VWS V14.01,2013-04-04 05:05:00,
2013-04-04 01:10:00,31.0,17.6,30.33,North,355,0.0,0.0,57,0.00,,---,0.00,VWS V14.01,2013-04-04 05:10:00,
2013-04-04 01:15:00,31.1,17.7,30.33,North,355,0.0,0.0,57,0.00,,---,0.00,VWS V14.01,2013-04-04 05:15:00,
2013-04-04 01:20:00,29.7,17.5,30.33,North,355,1.0,2.0,60,0.00,,---,0.00,VWS V14.01,2013-04-04 05:20:00,
2013-04-04 01:25:00,28.9,17.9,30.33,North,355,0.0,2.0,63,0.00,,---,0.00,VWS V14.01,2013-04-04 05:25:00,
2013-04-04 01:30:00,28.9,17.9,30.33,North,355,0.0,0.0,63,0.00,,---,0.00,VWS V14.01,2013-04-04 05:30:00,
2013-04-04 01:35:00,28.6,17.6,30.33,North,355,0.0,0.0,63,0.00,,---,0.00,VWS V14.01,2013-04-04 05:35:00,
2013-04-04 01:40:00,28.9,17.5,30.33,North,355,0.0,0.0,62,0.00,,---,0.00,VWS V14.01,2013-04-04 05:40:00,
2013-04-04 01:45:00,27.9,17.3,30.33,North,355,0.0,0.0,64,0.00,,---,0.00,VWS V14.01,2013-04-04 05:45:00,
2013-04-04 01:50:00,27.8,17.2,30.33,North,355,0.0,0.0,64,0.00,,---,0.00,VWS V14.01,2013-04-04 05:50:00,
2013-04-04 01:55:00,27.9,17.0,30.33,North,355,0.0,0.0,63,0.00,,---,0.00,VWS V14.01,2013-04-04 05:55:00,
2013-04-04 02:00:00,27.8,17.2,30.33,North,355,0.0,1.0,64,0.00,,---,0.00,VWS V14.01,2013-04-04 06:00:00,
2013-04-04 02:05:00,28.2,17.6,30.33,North,355,0.0,0.0,64,0.00,,---,0.00,VWS V14.01,2013-04-04 06:05:00,
2013-04-04 02:10:00,28.2,16.9,30.33,North,355,0.0,0.0,62,0.00,,---,0.00,VWS V14.01,2013-04-04 06:10:00,
2013-04-04 02:15:00,27.8,16.9,30.34,North,355,1.0,2.0,63,0.00,,---,0.00,VWS V14.01,2013-04-04 06:15:00,
2013-04-04 02:20:00,27.8,16.9,30.34,North,355,0.0,0.0,63,0.00,,---,0.00,VWS V14.01,2013-04-04 06:20:00,
2013-04-04 02:25:00,27.3,17.1,30.34,North,355,0.0,0.0,65,0.00,,---,0.00,VWS V14.01,2013-04-04 06:25:00,
2013-04-04 02:30:00,27.0,16.8,30.33,North,355,0.0,0.0,65,0.00,,---,0.00,VWS V14.01,2013-04-04 06:30:00,
2013-04-04 02:35:00,26.2,17.1,30.34,North,355,0.0,0.0,68,0.00,,---,0.00,VWS V14.01,2013-04-04 06:35:00,
2013-04-04 02:40:00,25.9,17.8,30.33,North,355,0.0,0.0,71,0.00,,---,0.00,VWS V14.01,2013-04-04 06:40:00,
2013-04-04 02:45:00,26.5,18.0,30.33,North,355,0.0,0.0,70,0.00,,---,0.00,VWS V14.01,2013-04-04 06:45:00,
2013-04-04 02:50:00,26.7,17.9,30.33,North,355,0.0,0.0,69,0.00,,---,0.00,VWS V14.01,2013-04-04 06:50:00,
2013-04-04 02:55:00,26.3,17.2,30.34,North,355,0.0,0.0,68,0.00,,---,0.00,VWS V14.01,2013-04-04 06:55:00,
2013-04-04 03:00:00,26.4,17.6,30.32,North,355,2.0,4.0,69,0.00,,---,0.00,VWS V14.01,2013-04-04 07:00:00,
2013-04-04 03:05:00,26.0,17.9,30.33,North,360,1.0,4.0,71,0.00,,---,0.00,VWS V14.01,2013-04-04 07:05:00,
2013-04-04 03:10:00,26.3,17.9,30.32,North,5,1.0,3.0,70,0.00,,---,0.00,VWS V14.01,2013-04-04 07:10:00,
2013-04-04 03:15:00,26.3,17.2,30.32,North,5,0.0,1.0,68,0.00,,---,0.00,VWS V14.01,2013-04-04 07:15:00,
2013-04-04 03:20:00,26.2,17.1,30.33,North,5,0.0,0.0,68,0.00,,---,0.00,VWS V14.01,2013-04-04 07:20:00,
2013-04-04 03:25:00,26.2,18.1,30.33,North,5,0.0,0.0,71,0.00,,---,0.00,VWS V14.01,2013-04-04 07:25:00,
2013-04-04 03:30:00,26.5,18.0,30.33,North,5,0.0,0.0,70,0.00,,---,0.00,VWS V14.01,2013-04-04 07:30:00,
2013-04-04 03:35:00,26.6,18.1,30.33,North,5,0.0,0.0,70,0.00,,---,0.00,VWS V14.01,2013-04-04 07:35:00,
2013-04-04 03:40:00,26.8,18.3,30.33,North,5,0.0,3.0,70,0.00,,---,0.00,VWS V14.01,2013-04-04 07:40:00,
2013-04-04 03:45:00,26.3,17.5,30.33,North,5,0.0,0.0,69,0.00,,---,0.00,VWS V14.01,2013-04-04 07:45:00,
2013-04-04 03:50:00,26.2,17.8,30.33,North,5,0.0,0.0,70,0.00,,---,0.00,VWS V14.01,2013-04-04 07:50:00,
2013-04-04 03:55:00,26.3,17.9,30.32,North,5,0.0,2.0,70,0.00,,---,0.00,VWS V14.01,2013-04-04 07:55:00,
2013-04-04 04:00:00,26.6,18.1,30.33,North,5,2.0,2.0,70,0.00,,---,0.00,VWS V14.01,2013-04-04 08:00:00,
2013-04-04 04:05:00,26.5,18.0,30.33,North,5,1.0,2.0,70,0.00,,---,0.00,VWS V14.01,2013-04-04 08:05:00,
2013-04-04 04:10:00,26.5,17.7,30.33,North,5,0.0,2.0,69,0.00,,---,0.00,VWS V14.01,2013-04-04 08:10:00,
2013-04-04 04:15:00,26.7,17.6,30.33,North,5,0.0,2.0,68,0.00,,---,0.00,VWS V14.01,2013-04-04 08:15:00,
2013-04-04 04:20:00,26.6,17.8,30.33,North,5,1.0,1.0,69,0.00,,---,0.00,VWS V14.01,2013-04-04 08:20:00,
2013-04-04 04:25:00,26.6,17.8,30.33,North,5,0.0,1.0,69,0.00,,---,0.00,VWS V14.01,2013-04-04 08:25:00,
2013-04-04 04:30:00,26.8,17.7,30.32,North,5,0.0,0.0,68,0.00,,---,0.00,VWS V14.01,2013-04-04 08:30:00,
2013-04-04 04:35:00,26.8,17.7,30.33,North,5,0.0,0.0,68,0.00,,---,0.00,VWS V14.01,2013-04-04 08:35:00,
2013-04-04 04:40:00,26.9,17.4,30.33,North,5,3.0,4.0,67,0.00,,---,0.00,VWS V14.01,2013-04-04 08:40:00,
2013-04-04 04:45:00,27.1,17.6,30.32,North,9,2.0,3.0,67,0.00,,---,0.00,VWS V14.01,2013-04-04 08:45:00,
2013-04-04 04:50:00,27.3,17.5,30.32,North,5,0.0,3.0,66,0.00,,---,0.00,VWS V14.01,2013-04-04 08:50:00,
2013-04-04 04:55:00,27.1,18.0,30.32,North,5,0.0,2.0,68,0.00,,---,0.00,VWS V14.01,2013-04-04 08:55:00,
2013-04-04 05:00:00,27.2,17.7,30.32,North,5,0.0,0.0,67,0.00,,---,0.00,VWS V14.01,2013-04-04 09:00:00,
2013-04-04 05:05:00,27.4,17.5,30.32,North,5,0.0,0.0,66,0.00,,---,0.00,VWS V14.01,2013-04-04 09:05:00,
2013-04-04 05:10:00,26.9,18.1,30.32,North,5,0.0,0.0,69,0.00,,---,0.00,VWS V14.01,2013-04-04 09:10:00,
2013-04-04 05:15:00,26.4,17.6,30.33,North,5,0.0,0.0,69,0.00,,---,0.00,VWS V14.01,2013-04-04 09:15:00,
2013-04-04 05:20:00,26.0,17.2,30.32,North,5,0.0,0.0,69,0.00,,---,0.00,VWS V14.01,2013-04-04 09:20:00,
2013-04-04 05:25:00,25.6,17.5,30.33,North,5,0.0,0.0,71,0.00,,---,0.00,VWS V14.01,2013-04-04 09:25:00,
2013-04-04 05:30:00,25.7,17.6,30.33,North,5,0.0,0.0,71,0.00,,---,0.00,VWS V14.01,2013-04-04 09:30:00,
2013-04-04 05:35:00,25.6,17.2,30.33,North,5,0.0,2.0,70,0.00,,---,0.00,VWS V14.01,2013-04-04 09:35:00,
2013-04-04 05:40:00,25.1,17.4,30.33,North,5,1.0,2.0,72,0.00,,---,0.00,VWS V14.01,2013-04-04 09:40:00,
2013-04-04 05:45:00,24.8,17.7,30.33,North,5,1.0,2.0,74,0.00,,---,0.00,VWS V14.01,2013-04-04 09:45:00,
2013-04-04 05:50:00,25.0,17.9,30.33,North,5,1.0,2.0,74,0.00,,---,0.00,VWS V14.01,2013-04-04 09:50:00,
2013-04-04 05:55:00,25.2,17.8,30.33,North,5,0.0,1.0,73,0.00,,---,0.00,VWS V14.01,2013-04-04 09:55:00,
2013-04-04 06:00:00,25.4,18.0,30.33,North,9,0.0,0.0,73,0.00,,---,0.00,VWS V14.01,2013-04-04 10:00:00,
2013-04-04 06:05:00,25.5,18.1,30.33,North,9,0.0,0.0,73,0.00,,---,0.00,VWS V14.01,2013-04-04 10:05:00,
2013-04-04 06:10:00,25.9,17.8,30.33,North,9,0.0,0.0,71,0.00,,---,0.00,VWS V14.01,2013-04-04 10:10:00,
2013-04-04 06:15:00,26.2,17.8,30.32,North,9,0.0,0.0,70,0.00,,---,0.00,VWS V14.01,2013-04-04 10:15:00,
2013-04-04 06:20:00,26.2,17.4,30.32,North,9,0.0,0.0,69,0.00,,---,0.00,VWS V14.01,2013-04-04 10:20:00,
2013-04-04 06:25:00,25.9,17.5,30.31,North,9,1.0,2.0,70,0.00,,---,0.00,VWS V14.01,2013-04-04 10:25:00,
2013-04-04 06:30:00,25.7,17.6,30.32,North,9,0.0,1.0,71,0.00,,---,0.00,VWS V14.01,2013-04-04 10:30:00,
2013-04-04 06:35:00,25.7,17.9,30.31,North,9,0.0,0.0,72,0.00,,---,0.00,VWS V14.01,2013-04-04 10:35:00,
2013-04-04 06:40:00,25.4,18.0,30.32,North,9,0.0,0.0,73,0.00,,---,0.00,VWS V14.01,2013-04-04 10:40:00,
2013-04-04 06:45:00,25.8,18.7,30.32,North,9,0.0,0.0,74,0.00,,---,0.00,VWS V14.01,2013-04-04 10:45:00,
2013-04-04 06:50:00,26.2,18.7,30.32,North,9,0.0,0.0,73,0.00,,---,0.00,VWS V14.01,2013-04-04 10:50:00,
2013-04-04 06:55:00,26.2,18.4,30.32,North,9,0.0,0.0,72,0.00,,---,0.00,VWS V14.01,2013-04-04 10:55:00,
2013-04-04 07:00:00,26.3,18.8,30.33,North,9,0.0,0.0,73,0.00,,---,0.00,VWS V14.01,2013-04-04 11:00:00,
2013-04-04 07:05:00,26.0,18.5,30.33,North,9,0.0,0.0,73,0.00,,---,0.00,VWS V14.01,2013-04-04 11:05:00,
2013-04-04 07:10:00,25.5,18.7,30.33,North,9,0.0,0.0,75,0.00,,---,0.00,VWS V14.01,2013-04-04 11:10:00,
2013-04-04 07:15:00,25.3,18.8,30.33,North,9,0.0,0.0,76,0.00,,---,0.00,VWS V14.01,2013-04-04 11:15:00,
2013-04-04 07:20:00,25.2,19.0,30.33,North,9,0.0,0.0,77,0.00,,---,0.00,VWS V14.01,2013-04-04 11:20:00,
2013-04-04 07:25:00,25.5,19.3,30.33,North,9,0.0,2.0,77,0.00,,---,0.00,VWS V14.01,2013-04-04 11:25:00,
2013-04-04 07:30:00,25.8,19.0,30.33,North,9,0.0,0.0,75,0.00,,---,0.00,VWS V14.01,2013-04-04 11:30:00,
2013-04-04 07:35:00,26.2,19.4,30.33,North,9,0.0,0.0,75,0.00,,---,0.00,VWS V14.01,2013-04-04 11:35:00,
2013-04-04 07:40:00,26.1,19.6,30.33,North,9,0.0,0.0,76,0.00,,---,0.00,VWS V14.01,2013-04-04 11:40:00,
2013-04-04 07:45:00,26.3,19.8,30.33,North,9,0.0,0.0,76,0.00,,---,0.00,VWS V14.01,2013-04-04 11:45:00,
2013-04-04 07:50:00,26.4,20.2,30.33,North,9,0.0,0.0,77,0.00,,---,0.00,VWS V14.01,2013-04-04 11:50:00,
2013-04-04 07:51:00,26.6,20.4,30.33,North,9,0.0,0.0,77,0.00,,---,0.00,VWS V14.01,2013-04-04 11:51:00,
2013-04-04 07:55:00,26.8,20.6,30.33,North,9,0.0,0.0,77,0.00,,---,0.00,VWS V14.01,2013-04-04 11:55:00,
2013-04-04 07:56:00,27.1,21.2,30.33,North,9,0.0,0.0,78,0.00,,---,0.00,VWS V14.01,2013-04-04 11:56:00,
2013-04-04 08:00:00,27.1,20.9,30.34,North,9,0.0,0.0,77,0.00,,---,0.00,VWS V14.01,2013-04-04 12:00:00,
2013-04-04 08:01:00,27.4,21.1,30.34,North,9,0.0,0.0,77,0.00,,---,0.00,VWS V14.01,2013-04-04 12:01:00,
2013-04-04 08:05:00,27.6,21.0,30.34,North,9,0.0,0.0,76,0.00,,---,0.00,VWS V14.01,2013-04-04 12:05:00,
2013-04-04 08:06:00,27.9,21.3,30.35,North,9,0.0,0.0,76,0.00,,---,0.00,VWS V14.01,2013-04-04 12:06:00,
2013-04-04 08:10:00,28.1,21.2,30.35,North,9,0.0,0.0,75,0.00,,---,0.00,VWS V14.01,2013-04-04 12:10:00,
2013-04-04 08:11:00,28.5,21.3,30.35,North,9,1.0,2.0,74,0.00,,---,0.00,VWS V14.01,2013-04-04 12:11:00,
2013-04-04 08:15:00,28.7,20.8,30.35,North,9,1.0,2.0,72,0.00,,---,0.00,VWS V14.01,2013-04-04 12:15:00,
2013-04-04 08:16:00,29.2,21.0,30.35,North,9,0.0,2.0,71,0.00,,---,0.00,VWS V14.01,2013-04-04 12:16:00,
2013-04-04 08:20:00,29.3,20.8,30.35,North,9,0.0,2.0,70,0.00,,---,0.00,VWS V14.01,2013-04-04 12:20:00,
2013-04-04 08:21:00,29.5,20.6,30.34,North,9,0.0,0.0,69,0.00,,---,0.00,VWS V14.01,2013-04-04 12:21:00,
2013-04-04 08:25:00,29.6,20.7,30.35,North,9,0.0,0.0,69,0.00,,---,0.00,VWS V14.01,2013-04-04 12:25:00,
2013-04-04 08:26:00,29.8,20.9,30.35,NNE,22,2.0,3.0,69,0.00,,---,0.00,VWS V14.01,2013-04-04 12:26:00,
2013-04-04 08:30:00,29.9,21.0,30.34,NNE,23,2.0,3.0,69,0.00,,---,0.00,VWS V14.01,2013-04-04 12:30:00,
2013-04-04 08:31:00,30.0,20.7,30.35,NNE,28,2.0,3.0,68,0.00,,---,0.00,VWS V14.01,2013-04-04 12:31:00,
2013-04-04 08:35:00,30.0,20.7,30.35,NNE,28,2.0,3.0,68,0.00,,---,0.00,VWS V14.01,2013-04-04 12:35:00,
2013-04-04 08:36:00,30.3,21.0,30.34,NNE,28,0.0,3.0,68,0.00,,---,0.00,VWS V14.01,2013-04-04 12:36:00,
2013-04-04 08:40:00,30.3,21.0,30.35,NNE,26,0.0,3.0,68,0.00,,---,0.00,VWS V14.01,2013-04-04 12:40:00,
2013-04-04 08:41:00,30.5,20.9,30.34,NNE,32,2.0,3.0,67,0.00,,---,0.00,VWS V14.01,2013-04-04 12:41:00,
2013-04-04 08:45:00,30.5,21.2,30.35,NE,42,0.0,3.0,68,0.00,,---,0.00,VWS V14.01,2013-04-04 12:45:00,
2013-04-04 08:46:00,30.7,21.4,30.35,SSW,198,5.0,5.0,68,0.00,,---,0.00,VWS V14.01,2013-04-04 12:46:00,
2013-04-04 08:50:00,30.7,21.1,30.35,SSW,199,2.0,5.0,67,0.00,,---,0.00,VWS V14.01,2013-04-04 12:50:00,
2013-04-04 08:51:00,30.8,21.1,30.35,SSW,204,1.0,5.0,67,0.00,,---,0.00,VWS V14.01,2013-04-04 12:51:00,
2013-04-04 08:55:00,30.8,21.1,30.35,SSW,205,5.0,5.0,67,0.00,,---,0.00,VWS V14.01,2013-04-04 12:55:00,
2013-04-04 08:56:00,31.0,21.7,30.35,SSW,209,0.0,5.0,68,0.00,,---,0.00,VWS V14.01,2013-04-04 12:56:00,
2013-04-04 09:00:00,31.1,21.4,30.35,SSW,209,1.0,5.0,67,0.00,,---,0.00,VWS V14.01,2013-04-04 13:00:00,
2013-04-04 09:01:00,31.2,20.5,30.35,SSW,202,1.0,7.0,64,0.00,,---,0.00,VWS V14.01,2013-04-04 13:01:00,
2013-04-04 09:05:00,31.2,20.5,30.35,SSW,202,3.0,7.0,64,0.00,,---,0.00,VWS V14.01,2013-04-04 13:05:00,
2013-04-04 09:06:00,31.5,20.7,30.35,SSW,202,3.0,3.0,64,0.00,,---,0.00,VWS V14.01,2013-04-04 13:06:00,
2013-04-04 09:10:00,31.6,20.8,30.35,SSW,202,0.0,4.0,64,0.00,,---,0.00,VWS V14.01,2013-04-04 13:10:00,
2013-04-04 09:11:00,31.8,20.3,30.34,SSW,202,0.0,3.0,62,0.00,,---,0.00,VWS V14.01,2013-04-04 13:11:00,
2013-04-04 09:15:00,31.9,20.0,30.34,South,190,4.0,5.0,61,0.00,,---,0.00,VWS V14.01,2013-04-04 13:15:00,
2013-04-04 09:16:00,32.1,19.8,30.34,South,183,1.0,6.0,60,0.00,,---,0.00,VWS V14.01,2013-04-04 13:16:00,
2013-04-04 09:20:00,32.2,20.3,30.34,South,184,0.0,6.0,61,0.00,,---,0.00,VWS V14.01,2013-04-04 13:20:00,
2013-04-04 09:21:00,32.5,19.8,30.34,SSE,159,5.0,6.0,59,0.00,,---,0.00,VWS V14.01,2013-04-04 13:21:00,
2013-04-04 09:25:00,32.5,19.4,30.34,SSE,157,4.0,6.0,58,0.00,,---,0.00,VWS V14.01,2013-04-04 13:25:00,
2013-04-04 09:26:00,32.8,19.7,30.34,SSE,157,4.0,5.0,58,0.00,,---,0.00,VWS V14.01,2013-04-04 13:26:00,
2013-04-04 09:30:00,32.9,19.8,30.34,SSE,157,4.0,6.0,58,0.00,,---,0.00,VWS V14.01,2013-04-04 13:30:00,
2013-04-04 09:31:00,33.3,19.7,30.34,SSE,150,5.0,6.0,57,0.00,,---,0.00,VWS V14.01,2013-04-04 13:31:00,
2013-04-04 09:35:00,33.4,19.8,30.34,SSE,150,2.0,7.0,57,0.00,,---,0.00,VWS V14.01,2013-04-04 13:35:00,
2013-04-04 09:36:00,33.7,19.7,30.34,SSE,149,6.0,6.0,56,0.00,,---,0.00,VWS V14.01,2013-04-04 13:36:00,
2013-04-04 09:40:00,33.8,19.8,30.34,SSE,149,2.0,6.0,56,0.00,,---,0.00,VWS V14.01,2013-04-04 13:40:00,
2013-04-04 09:41:00,34.0,20.0,30.34,South,180,3.0,7.0,56,0.00,,---,0.00,VWS V14.01,2013-04-04 13:41:00,
2013-04-04 09:45:00,34.0,19.5,30.34,South,181,3.0,7.0,55,0.00,,---,0.00,VWS V14.01,2013-04-04 13:45:00,
2013-04-04 09:46:00,34.3,20.2,30.34,SSE,152,6.0,8.0,56,0.00,,---,0.00,VWS V14.01,2013-04-04 13:46:00,
2013-04-04 09:50:00,34.3,19.4,30.34,SSW,196,3.0,8.0,54,0.00,,---,0.00,VWS V14.01,2013-04-04 13:50:00,
2013-04-04 09:51:00,34.5,20.4,30.34,SSE,153,5.0,6.0,56,0.00,,---,0.00,VWS V14.01,2013-04-04 13:51:00,
2013-04-04 09:55:00,34.5,20.4,30.34,SE,141,6.0,7.0,56,0.00,,---,0.00,VWS V14.01,2013-04-04 13:55:00,
2013-04-04 09:56:00,34.8,19.9,30.33,SE,140,4.0,8.0,54,0.00,,---,0.00,VWS V14.01,2013-04-04 13:56:00,
2013-04-04 10:00:00,35.3,19.9,30.33,South,171,7.0,8.0,53,0.00,,---,0.00,VWS V14.01,2013-04-04 14:00:00,
2013-04-04 10:05:00,35.3,19.5,30.33,SSW,198,3.0,8.0,52,0.00,,---,0.00,VWS V14.01,2013-04-04 14:05:00,
2013-04-04 10:06:00,35.7,20.3,30.33,SSW,196,5.0,8.0,53,0.00,,---,0.00,VWS V14.01,2013-04-04 14:06:00,
2013-04-04 10:10:00,36.0,20.1,30.33,SE,140,6.0,8.0,52,0.00,,---,0.00,VWS V14.01,2013-04-04 14:10:00,
2013-04-04 10:11:00,36.3,19.5,30.33,SSE,161,7.0,10.0,50,0.00,,---,0.00,VWS V14.01,2013-04-04 14:11:00,
2013-04-04 10:15:00,36.3,19.5,30.33,SE,145,6.0,10.0,50,0.00,,---,0.00,VWS V14.01,2013-04-04 14:15:00,
2013-04-04 10:16:00,36.5,19.6,30.33,SSW,195,4.0,7.0,50,0.00,,---,0.00,VWS V14.01,2013-04-04 14:16:00,
2013-04-04 10:20:00,36.5,20.1,30.33,SSW,200,4.0,7.0,51,0.00,,---,0.00,VWS V14.01,2013-04-04 14:20:00,
2013-04-04 10:21:00,36.9,20.5,30.32,SSE,159,5.0,8.0,51,0.00,,---,0.00,VWS V14.01,2013-04-04 14:21:00,
2013-04-04 10:25:00,37.1,20.7,30.32,SSW,193,4.0,8.0,51,0.00,,---,0.00,VWS V14.01,2013-04-04 14:25:00,
2013-04-04 10:26:00,37.6,20.2,30.32,SSE,164,1.0,10.0,49,0.00,,---,0.00,VWS V14.01,2013-04-04 14:26:00,
2013-04-04 10:30:00,37.7,19.8,30.32,SSE,165,4.0,10.0,48,0.00,,---,0.00,VWS V14.01,2013-04-04 14:30:00,
2013-04-04 10:31:00,38.2,20.2,30.32,SE,146,7.0,11.0,48,0.00,,---,0.00,VWS V14.01,2013-04-04 14:31:00,
2013-04-04 10:35:00,38.3,20.8,30.32,SSE,156,9.0,11.0,49,0.00,,---,0.00,VWS V14.01,2013-04-04 14:35:00,
2013-04-04 10:36:00,39.0,21.5,30.32,South,178,10.0,10.0,49,0.00,,---,0.00,VWS V14.01,2013-04-04 14:36:00,
2013-04-04 10:40:00,39.0,21.5,30.32,SSE,156,5.0,10.0,49,0.00,,---,0.00,VWS V14.01,2013-04-04 14:40:00,
2013-04-04 10:42:00,38.6,19.1,30.32,South,173,9.0,11.0,45,0.00,,---,0.00,VWS V14.01,2013-04-04 14:42:00,
2013-04-04 10:45:00,38.5,19.0,30.32,South,176,8.0,11.0,45,0.00,,---,0.00,VWS V14.01,2013-04-04 14:45:00,
2013-04-04 10:47:00,38.4,19.4,30.31,SW,214,4.0,10.0,46,0.00,,---,0.00,VWS V14.01,2013-04-04 14:47:00,
2013-04-04 10:50:00,38.4,19.4,30.31,SSW,213,0.0,10.0,46,0.00,,---,0.00,VWS V14.01,2013-04-04 14:50:00,
2013-04-04 10:52:00,38.4,18.9,30.30,South,180,1.0,9.0,45,0.00,,---,0.00,VWS V14.01,2013-04-04 14:52:00,
2013-04-04 10:55:00,38.4,18.9,30.30,South,188,3.0,9.0,45,0.00,,---,0.00,VWS V14.01,2013-04-04 14:55:00,
2013-04-04 10:57:00,39.0,19.5,30.30,SE,146,4.0,8.0,45,0.00,,---,0.00,VWS V14.01,2013-04-04 14:57:00,
2013-04-04 11:00:00,39.1,19.0,30.30,SE,146,1.0,8.0,44,0.00,,---,0.00,VWS V14.01,2013-04-04 15:00:00,
2013-04-04 11:02:00,39.9,20.3,30.31,South,187,3.0,6.0,45,0.00,,---,0.00,VWS V14.01,2013-04-04 15:02:00,
2013-04-04 11:05:00,39.9,20.3,30.31,South,187,0.0,6.0,45,0.00,,---,0.00,VWS V14.01,2013-04-04 15:05:00,
2013-04-04 11:07:00,40.0,21.4,30.30,South,187,0.0,0.0,47,0.00,,---,0.00,VWS V14.01,2013-04-04 15:07:00,
2013-04-04 11:10:00,40.0,19.9,30.30,SE,138,0.0,1.0,44,0.00,,---,0.00,VWS V14.01,2013-04-04 15:10:00,
2013-04-04 11:12:00,39.9,18.7,30.30,South,185,0.0,9.0,42,0.00,,---,0.00,VWS V14.01,2013-04-04 15:12:00,
2013-04-04 11:15:00,39.8,18.6,30.30,South,185,2.0,9.0,42,0.00,,---,0.00,VWS V14.01,2013-04-04 15:15:00,
2013-04-04 11:17:00,39.6,19.0,30.30,South,187,1.0,5.0,43,0.00,,---,0.00,VWS V14.01,2013-04-04 15:17:00,
2013-04-04 11:20:00,39.6,19.0,30.30,South,191,5.0,5.0,43,0.00,,---,0.00,VWS V14.01,2013-04-04 15:20:00,
2013-04-04 11:22:00,40.2,19.0,30.30,SSE,149,2.0,7.0,42,0.00,,---,0.00,VWS V14.01,2013-04-04 15:22:00,
2013-04-04 11:25:00,40.2,19.0,30.30,SSE,149,4.0,7.0,42,0.00,,---,0.00,VWS V14.01,2013-04-04 15:25:00,
2013-04-04 11:27:00,40.6,19.3,30.30,SSE,159,2.0,7.0,42,0.00,,---,0.00,VWS V14.01,2013-04-04 15:27:00,
2013-04-04 11:30:00,40.6,19.3,30.30,SSE,159,0.0,7.0,42,0.00,,---,0.00,VWS V14.01,2013-04-04 15:30:00,
2013-04-04 11:32:00,40.9,19.6,30.29,SSE,154,2.0,9.0,42,0.00,,---,0.00,VWS V14.01,2013-04-04 15:32:00,
2013-04-04 11:35:00,40.8,19.5,30.29,SE,126,6.0,9.0,42,0.00,,---,0.00,VWS V14.01,2013-04-04 15:35:00,
2013-04-04 11:37:00,41.4,20.0,30.29,SW,215,0.0,8.0,42,0.00,,---,0.00,VWS V14.01,2013-04-04 15:37:00,
2013-04-04 11:40:00,41.5,20.7,30.29,SW,214,2.0,8.0,43,0.00,,---,0.00,VWS V14.01,2013-04-04 15:40:00,
2013-04-04 11:42:00,42.3,20.9,30.29,SSE,151,0.0,6.0,42,0.00,,---,0.00,VWS V14.01,2013-04-04 15:42:00,
2013-04-04 11:45:00,42.4,22.6,30.29,South,169,5.0,6.0,45,0.00,,---,0.00,VWS V14.01,2013-04-04 15:45:00,
2013-04-04 11:47:00,42.5,18.7,30.29,South,181,1.0,7.0,38,0.00,,---,0.00,VWS V14.01,2013-04-04 15:47:00,
2013-04-04 11:50:00,42.5,18.7,30.29,South,179,2.0,7.0,38,0.00,,---,0.00,VWS V14.01,2013-04-04 15:50:00,
2013-04-04 11:52:00,42.8,21.3,30.28,SSW,205,0.0,7.0,42,0.00,,---,0.00,VWS V14.01,2013-04-04 15:52:00,
2013-04-04 11:55:00,42.8,21.3,30.28,SSW,204,0.0,7.0,42,0.00,,---,0.00,VWS V14.01,2013-04-04 15:55:00,
2013-04-04 11:57:00,43.2,22.8,30.28,South,178,0.0,5.0,44,0.00,,---,0.00,VWS V14.01,2013-04-04 15:57:00,
2013-04-04 12:00:00,43.2,22.8,30.28,South,178,0.0,5.0,44,0.00,,---,0.00,VWS V14.01,2013-04-04 16:00:00,
2013-04-04 12:02:00,43.2,21.7,30.27,SSW,212,5.0,9.0,42,0.00,,---,0.00,VWS V14.01,2013-04-04 16:02:00,
2013-04-04 12:05:00,43.2,21.7,30.27,South,190,4.0,9.0,42,0.00,,---,0.00,VWS V14.01,2013-04-04 16:05:00,
2013-04-04 12:07:00,43.4,20.1,30.27,SW,223,1.0,7.0,39,0.00,,---,0.00,VWS V14.01,2013-04-04 16:07:00,
2013-04-04 12:10:00,43.4,20.1,30.27,SW,224,0.0,7.0,39,0.00,,---,0.00,VWS V14.01,2013-04-04 16:10:00,
2013-04-04 12:12:00,43.4,20.7,30.26,SW,227,6.0,7.0,40,0.00,,---,0.00,VWS V14.01,2013-04-04 16:12:00,
2013-04-04 12:15:00,43.5,21.4,30.26,SW,224,5.0,7.0,41,0.00,,---,0.00,VWS V14.01,2013-04-04 16:15:00,
2013-04-04 12:17:00,43.5,17.7,30.26,SW,232,1.0,9.0,35,0.00,,---,0.00,VWS V14.01,2013-04-04 16:17:00,
2013-04-04 12:20:00,43.5,17.7,30.26,SW,233,4.0,9.0,35,0.00,,---,0.00,VWS V14.01,2013-04-04 16:20:00,
2013-04-04 12:22:00,43.9,21.7,30.25,SSW,211,4.0,8.0,41,0.00,,---,0.00,VWS V14.01,2013-04-04 16:22:00,
2013-04-04 12:25:00,43.9,21.7,30.25,SSW,211,4.0,8.0,41,0.00,,---,0.00,VWS V14.01,2013-04-04 16:25:00,
2013-04-04 12:27:00,43.8,20.5,30.25,SW,219,5.0,10.0,39,0.00,,---,0.00,VWS V14.01,2013-04-04 16:27:00,
2013-04-04 12:30:00,43.8,20.5,30.25,SW,224,6.0,10.0,39,0.00,,---,0.00,VWS V14.01,2013-04-04 16:30:00,
2013-04-04 12:32:00,43.6,22.0,30.25,WSW,244,0.0,7.0,42,0.00,,---,0.00,VWS V14.01,2013-04-04 16:32:00,
2013-04-04 12:35:00,43.7,22.1,30.25,WSW,244,0.0,7.0,42,0.00,,---,0.00,VWS V14.01,2013-04-04 16:35:00,
2013-04-04 12:37:00,44.5,20.5,30.25,SW,229,2.0,8.0,38,0.00,,---,0.00,VWS V14.01,2013-04-04 16:37:00,
2013-04-04 12:40:00,44.5,20.5,30.25,South,183,4.0,8.0,38,0.00,,---,0.00,VWS V14.01,2013-04-04 16:40:00,
2013-04-04 12:42:00,44.9,20.9,30.25,WSW,239,10.0,11.0,38,0.00,,---,0.00,VWS V14.01,2013-04-04 16:42:00,
2013-04-04 12:45:00,44.9,20.9,30.25,SW,225,6.0,11.0,38,0.00,,---,0.00,VWS V14.01,2013-04-04 16:45:00,
2013-04-04 12:47:00,44.6,21.2,30.24,WSW,248,6.0,7.0,39,0.00,,---,0.00,VWS V14.01,2013-04-04 16:47:00,
2013-04-04 12:50:00,44.6,21.2,30.25,WSW,247,6.0,7.0,39,0.00,,---,0.00,VWS V14.01,2013-04-04 16:50:00,
2013-04-04 12:52:00,45.3,21.2,30.24,SSW,195,1.0,8.0,38,0.00,,---,0.00,VWS V14.01,2013-04-04 16:52:00,
2013-04-04 12:55:00,45.3,21.2,30.24,SSW,195,1.0,8.0,38,0.00,,---,0.00,VWS V14.01,2013-04-04 16:55:00,
2013-04-04 12:57:00,45.9,18.4,30.24,SSW,198,6.0,11.0,33,0.00,,---,0.00,VWS V14.01,2013-04-04 16:57:00,
2013-04-04 13:00:00,45.9,18.4,30.24,SW,215,5.0,11.0,33,0.00,,---,0.00,VWS V14.01,2013-04-04 17:00:00,
2013-04-04 13:02:00,46.1,21.9,30.23,WSW,253,10.0,12.0,38,0.00,,---,0.00,VWS V14.01,2013-04-04 17:02:00,
2013-04-04 13:05:00,46.1,21.9,30.23,WSW,253,10.0,12.0,38,0.00,,---,0.00,VWS V14.01,2013-04-04 17:05:00,
2013-04-04 13:07:00,46.3,20.8,30.23,SSW,198,3.0,14.0,36,0.00,,---,0.00,VWS V14.01,2013-04-04 17:07:00,
2013-04-04 13:10:00,46.3,20.8,30.23,SSW,198,3.0,14.0,36,0.00,,---,0.00,VWS V14.01,2013-04-04 17:10:00,
2013-04-04 13:12:00,46.3,20.2,30.22,South,185,3.0,4.0,35,0.00,,---,0.00,VWS V14.01,2013-04-04 17:12:00,
2013-04-04 13:15:00,46.3,20.2,30.22,South,188,3.0,11.0,35,0.00,,---,0.00,VWS V14.01,2013-04-04 17:15:00,
2013-04-04 13:17:00,46.5,21.6,30.22,SW,214,0.0,0.0,37,0.00,,---,0.00,VWS V14.01,2013-04-04 17:17:00,
2013-04-04 13:20:00,46.5,21.6,30.22,SW,214,0.0,7.0,37,0.00,,---,0.00,VWS V14.01,2013-04-04 17:20:00,
2013-04-04 13:22:00,46.8,21.9,30.22,SSW,209,6.0,9.0,37,0.00,,---,0.00,VWS V14.01,2013-04-04 17:22:00,
2013-04-04 13:25:00,46.8,21.9,30.22,SSW,209,6.0,9.0,37,0.00,,---,0.00,VWS V14.01,2013-04-04 17:25:00,
2013-04-04 13:27:00,46.2,19.4,30.21,SSW,207,2.0,9.0,34,0.00,,---,0.00,VWS V14.01,2013-04-04 17:27:00,
2013-04-04 13:30:00,46.2,19.4,30.21,SSW,207,2.0,9.0,34,0.00,,---,0.00,VWS V14.01,2013-04-04 17:30:00,
2013-04-04 13:32:00,46.4,18.9,30.21,SSW,206,4.0,5.0,33,0.00,,---,0.00,VWS V14.01,2013-04-04 17:32:00,
2013-04-04 13:35:00,46.4,18.9,30.21,SSW,206,2.0,7.0,33,0.00,,---,0.00,VWS V14.01,2013-04-04 17:35:00,
2013-04-04 13:37:00,46.8,20.6,30.21,SSW,207,5.0,6.0,35,0.00,,---,0.00,VWS V14.01,2013-04-04 17:37:00,
2013-04-04 13:40:00,46.8,20.6,30.21,SSW,205,3.0,10.0,35,0.00,,---,0.00,VWS V14.01,2013-04-04 17:40:00,
2013-04-04 13:42:00,46.8,20.6,30.20,SSW,200,8.0,9.0,35,0.00,,---,0.00,VWS V14.01,2013-04-04 17:42:00,
2013-04-04 13:45:00,46.8,20.6,30.20,SSW,205,5.0,10.0,35,0.00,,---,0.00,VWS V14.01,2013-04-04 17:45:00,
2013-04-04 13:47:00,46.9,20.7,30.20,SSE,148,7.0,7.0,35,0.00,,---,0.00,VWS V14.01,2013-04-04 17:47:00,
2013-04-04 13:50:00,46.9,20.7,30.20,SSE,168,4.0,9.0,35,0.00,,---,0.00,VWS V14.01,2013-04-04 17:50:00,
2013-04-04 13:52:00,46.9,18.6,30.20,South,187,1.0,5.0,32,0.00,,---,0.00,VWS V14.01,2013-04-04 17:52:00,
2013-04-04 13:55:00,46.9,18.6,30.20,South,191,5.0,11.0,32,0.00,,---,0.00,VWS V14.01,2013-04-04 17:55:00,
2013-04-04 13:57:00,47.3,23.0,30.20,SW,219,0.0,2.0,38,0.00,,---,0.00,VWS V14.01,2013-04-04 17:57:00,
2013-04-04 14:00:00,47.3,23.0,30.20,SW,219,2.0,7.0,38,0.00,,---,0.00,VWS V14.01,2013-04-04 18:00:00,
2013-04-04 14:02:00,47.6,19.2,30.20,SSW,200,0.0,1.0,32,0.00,,---,0.00,VWS V14.01,2013-04-04 18:02:00,
2013-04-04 14:05:00,47.7,20.0,30.20,SSW,200,1.0,9.0,33,0.00,,---,0.00,VWS V14.01,2013-04-04 18:05:00,
2013-04-04 14:07:00,47.6,19.9,30.19,South,189,6.0,9.0,33,0.00,,---,0.00,VWS V14.01,2013-04-04 18:07:00,
2013-04-04 14:10:00,47.6,19.9,30.19,SSW,199,6.0,9.0,33,0.00,,---,0.00,VWS V14.01,2013-04-04 18:10:00,
2013-04-04 14:12:00,47.5,19.1,30.19,SW,223,3.0,8.0,32,0.00,,---,0.00,VWS V14.01,2013-04-04 18:12:00,
2013-04-04 14:15:00,47.5,19.1,30.19,SW,223,8.0,13.0,32,0.00,,---,0.00,VWS V14.01,2013-04-04 18:15:00,
2013-04-04 14:17:00,47.3,19.0,30.19,SW,225,6.0,8.0,32,0.00,,---,0.00,VWS V14.01,2013-04-04 18:17:00,
2013-04-04 14:20:00,47.3,19.0,30.19,South,185,8.0,11.0,32,0.00,,---,0.00,VWS V14.01,2013-04-04 18:20:00,
2013-04-04 14:22:00,47.6,19.2,30.19,SSE,156,11.0,11.0,32,0.00,,---,0.00,VWS V14.01,2013-04-04 18:22:00,
2013-04-04 14:25:00,47.6,19.2,30.19,South,180,6.0,12.0,32,0.00,,---,0.00,VWS V14.01,2013-04-04 18:25:00,
2013-04-04 14:27:00,47.4,18.3,30.18,SSW,202,0.0,0.0,31,0.00,,---,0.00,VWS V14.01,2013-04-04 18:27:00,
2013-04-04 14:30:00,47.3,18.2,30.18,SSW,202,0.0,13.0,31,0.00,,---,0.00,VWS V14.01,2013-04-04 18:30:00,
2013-04-04 14:32:00,47.3,19.7,30.18,South,188,4.0,4.0,33,0.00,,---,0.00,VWS V14.01,2013-04-04 18:32:00,
2013-04-04 14:35:00,47.3,19.7,30.18,South,188,3.0,14.0,33,0.00,,---,0.00,VWS V14.01,2013-04-04 18:35:00,
2013-04-04 14:37:00,47.2,19.6,30.18,South,171,2.0,3.0,33,0.00,,---,0.00,VWS V14.01,2013-04-04 18:37:00,
2013-04-04 14:40:00,47.2,19.6,30.18,SSW,209,2.0,11.0,33,0.00,,---,0.00,VWS V14.01,2013-04-04 18:40:00,
2013-04-04 14:42:00,47.1,18.8,30.18,SSW,213,6.0,7.0,32,0.00,,---,0.00,VWS V14.01,2013-04-04 18:42:00,
2013-04-04 14:45:00,47.1,18.8,30.18,SSW,201,5.0,13.0,32,0.00,,---,0.00,VWS V14.01,2013-04-04 18:45:00,
2013-04-04 14:47:00,47.2,20.3,30.18,SW,215,1.0,2.0,34,0.00,,---,0.00,VWS V14.01,2013-04-04 18:47:00,
2013-04-04 14:50:00,47.2,20.3,30.18,SW,215,2.0,10.0,34,0.00,,---,0.00,VWS V14.01,2013-04-04 18:50:00,
2013-04-04 14:52:00,47.2,19.6,30.18,SW,217,8.0,8.0,33,0.00,,---,0.00,VWS V14.01,2013-04-04 18:52:00,
2013-04-04 14:55:00,47.2,19.6,30.18,SW,220,4.0,13.0,33,0.00,,---,0.00,VWS V14.01,2013-04-04 18:55:00,
2013-04-04 14:57:00,47.1,18.8,30.18,South,179,6.0,6.0,32,0.00,,---,0.00,VWS V14.01,2013-04-04 18:57:00,
2013-04-04 15:00:00,47.1,18.8,30.18,South,185,3.0,8.0,32,0.00,,---,0.00,VWS V14.01,2013-04-04 19:00:00,
2013-04-04 15:02:00,47.2,18.9,30.18,SSW,200,8.0,11.0,32,0.00,,---,0.00,VWS V14.01,2013-04-04 19:02:00,
2013-04-04 15:05:00,47.1,18.8,30.18,South,174,10.0,13.0,32,0.00,,---,0.00,VWS V14.01,2013-04-04 19:05:00,
2013-04-04 15:07:00,46.9,18.6,30.18,SSE,147,5.0,7.0,32,0.00,,---,0.00,VWS V14.01,2013-04-04 19:07:00,
2013-04-04 15:10:00,46.9,18.6,30.18,SSE,164,7.0,11.0,32,0.00,,---,0.00,VWS V14.01,2013-04-04 19:10:00,
2013-04-04 15:12:00,46.7,19.1,30.18,South,173,7.0,9.0,33,0.00,,---,0.00,VWS V14.01,2013-04-04 19:12:00,
2013-04-04 15:15:00,46.7,19.1,30.18,South,174,9.0,13.0,33,0.00,,---,0.00,VWS V14.01,2013-04-04 19:15:00,
2013-04-04 15:17:00,46.5,19.7,30.18,South,169,11.0,14.0,34,0.00,,---,0.00,VWS V14.01,2013-04-04 19:17:00,
2013-04-04 15:20:00,46.5,19.7,30.18,South,184,8.0,11.0,34,0.00,,---,0.00,VWS V14.01,2013-04-04 19:20:00,
2013-04-04 15:22:00,46.1,18.6,30.18,SSW,205,8.0,8.0,33,0.00,,---,0.00,VWS V14.01,2013-04-04 19:22:00,
2013-04-04 15:25:00,46.2,18.7,30.18,SSE,168,8.0,14.0,33,0.00,,---,0.00,VWS V14.01,2013-04-04 19:25:00,
2013-04-04 15:27:00,45.9,18.4,30.18,SSE,159,7.0,7.0,33,0.00,,---,0.00,VWS V14.01,2013-04-04 19:27:00,
2013-04-04 15:30:00,46.0,18.5,30.18,South,171,6.0,14.0,33,0.00,,---,0.00,VWS V14.01,2013-04-04 19:30:00,
2013-04-04 15:32:00,45.8,19.0,30.18,SSE,162,12.0,12.0,34,0.00,,---,0.00,VWS V14.01,2013-04-04 19:32:00,
2013-04-04 15:35:00,45.8,19.0,30.18,South,190,8.0,14.0,34,0.00,,---,0.00,VWS V14.01,2013-04-04 19:35:00,
2013-04-04 15:37:00,45.6,18.2,30.18,South,178,2.0,8.0,33,0.00,,---,0.00,VWS V14.01,2013-04-04 19:37:00,
2013-04-04 15:40:00,45.6,18.2,30.18,South,188,5.0,14.0,33,0.00,,---,0.00,VWS V14.01,2013-04-04 19:40:00,
2013-04-04 15:42:00,45.5,18.1,30.17,SSE,153,7.0,9.0,33,0.00,,---,0.00,VWS V14.01,2013-04-04 19:42:00,
2013-04-04 15:45:00,45.5,18.1,30.17,SE,144,7.0,14.0,33,0.00,,---,0.00,VWS V14.01,2013-04-04 19:45:00,
2013-04-04 15:47:00,45.5,19.5,30.17,SSE,156,9.0,9.0,35,0.00,,---,0.00,VWS V14.01,2013-04-04 19:47:00,
2013-04-04 15:50:00,45.5,20.1,30.17,SSE,159,8.0,13.0,36,0.00,,---,0.00,VWS V14.01,2013-04-04 19:50:00,
2013-04-04 15:52:00,45.4,19.4,30.17,South,169,7.0,8.0,35,0.00,,---,0.00,VWS V14.01,2013-04-04 19:52:00,
2013-04-04 15:55:00,45.4,18.7,30.17,SE,146,8.0,11.0,34,0.00,,---,0.00,VWS V14.01,2013-04-04 19:55:00,
2013-04-04 15:57:00,45.2,19.2,30.17,SE,134,6.0,8.0,35,0.00,,---,0.00,VWS V14.01,2013-04-04 19:57:00,
2013-04-04 16:00:00,45.2,19.2,30.17,SSE,163,6.0,14.0,35,0.00,,---,0.00,VWS V14.01,2013-04-04 20:00:00,
2013-04-04 16:02:00,45.1,18.4,30.17,South,186,6.0,8.0,34,0.00,,---,0.00,VWS V14.01,2013-04-04 20:02:00,
2013-04-04 16:05:00,45.1,18.4,30.17,South,178,8.0,14.0,34,0.00,,---,0.00,VWS V14.01,2013-04-04 20:05:00,
2013-04-04 16:07:00,45.1,18.4,30.17,SE,134,9.0,11.0,34,0.00,,---,0.00,VWS V14.01,2013-04-04 20:07:00,
2013-04-04 16:10:00,45.1,18.4,30.17,South,188,10.0,14.0,34,0.00,,---,0.00,VWS V14.01,2013-04-04 20:10:00,
2013-04-04 16:12:00,45.1,18.4,30.17,South,183,7.0,12.0,34,0.00,,---,0.00,VWS V14.01,2013-04-04 20:12:00,
2013-04-04 16:15:00,45.1,18.4,30.17,South,170,12.0,14.0,34,0.00,,---,0.00,VWS V14.01,2013-04-04 20:15:00,
2013-04-04 16:17:00,45.0,18.3,30.16,SSE,150,12.0,13.0,34,0.00,,---,0.00,VWS V14.01,2013-04-04 20:17:00,
2013-04-04 16:20:00,45.0,18.3,30.16,SSE,167,11.0,14.0,34,0.00,,---,0.00,VWS V14.01,2013-04-04 20:20:00,
2013-04-04 16:22:00,45.0,18.3,30.16,SSE,153,7.0,9.0,34,0.00,,---,0.00,VWS V14.01,2013-04-04 20:22:00,
2013-04-04 16:25:00,45.0,18.3,30.16,SE,143,6.0,14.0,34,0.00,,---,0.00,VWS V14.01,2013-04-04 20:25:00,
2013-04-04 16:27:00,45.0,18.3,30.16,SSE,150,6.0,10.0,34,0.00,,---,0.00,VWS V14.01,2013-04-04 20:27:00,
2013-04-04 16:30:00,45.1,18.4,30.16,SE,143,8.0,11.0,34,0.00,,---,0.00,VWS V14.01,2013-04-04 20:30:00,
2013-04-04 16:32:00,45.1,18.4,30.16,South,186,8.0,8.0,34,0.00,,---,0.00,VWS V14.01,2013-04-04 20:32:00,
2013-04-04 16:35:00,45.1,18.4,30.16,South,188,6.0,12.0,34,0.00,,---,0.00,VWS V14.01,2013-04-04 20:35:00,
2013-04-04 16:37:00,45.1,19.1,30.16,SSW,202,9.0,11.0,35,0.00,,---,0.00,VWS V14.01,2013-04-04 20:37:00,
2013-04-04 16:40:00,45.1,19.1,30.16,SSE,167,5.0,12.0,35,0.00,,---,0.00,VWS V14.01,2013-04-04 20:40:00,
2013-04-04 16:42:00,45.0,18.3,30.16,South,174,10.0,11.0,34,0.00,,---,0.00,VWS V14.01,2013-04-04 20:42:00,
2013-04-04 16:45:00,45.0,18.3,30.16,South,174,10.0,12.0,34,0.00,,---,0.00,VWS V14.01,2013-04-04 20:45:00,
2013-04-04 16:47:00,44.9,18.2,30.15,SE,136,11.0,11.0,34,0.00,,---,0.00,VWS V14.01,2013-04-04 20:47:00,
2013-04-04 16:50:00,44.9,18.2,30.15,SE,141,6.0,13.0,34,0.00,,---,0.00,VWS V14.01,2013-04-04 20:50:00,
2013-04-04 16:52:00,44.8,18.2,30.15,South,182,4.0,10.0,34,0.00,,---,0.00,VWS V14.01,2013-04-04 20:52:00,
2013-04-04 16:55:00,44.8,17.5,30.15,South,179,10.0,14.0,33,0.00,,---,0.00,VWS V14.01,2013-04-04 20:55:00,
2013-04-04 16:57:00,44.8,18.2,30.14,South,176,5.0,5.0,34,0.00,,---,0.00,VWS V14.01,2013-04-04 20:57:00,
2013-04-04 17:00:00,44.8,18.2,30.14,SSW,199,2.0,10.0,34,0.00,,---,0.00,VWS V14.01,2013-04-04 21:00:00,
2013-04-04 17:02:00,44.7,18.1,30.14,South,172,6.0,7.0,34,0.00,,---,0.00,VWS V14.01,2013-04-04 21:02:00,
2013-04-04 17:05:00,44.7,18.1,30.14,SSW,199,7.0,10.0,34,0.00,,---,0.00,VWS V14.01,2013-04-04 21:05:00,
2013-04-04 17:07:00,44.7,18.1,30.14,SSE,167,1.0,4.0,34,0.00,,---,0.00,VWS V14.01,2013-04-04 21:07:00,
2013-04-04 17:10:00,44.7,18.1,30.14,SSE,165,2.0,8.0,34,0.00,,---,0.00,VWS V14.01,2013-04-04 21:10:00,
2013-04-04 17:12:00,44.7,18.1,30.13,South,171,7.0,7.0,34,0.00,,---,0.00,VWS V14.01,2013-04-04 21:12:00,
2013-04-04 17:15:00,44.7,18.1,30.13,SSE,147,5.0,8.0,34,0.00,,---,0.00,VWS V14.01,2013-04-04 21:15:00,
2013-04-04 17:17:00,44.7,18.1,30.13,SSE,161,5.0,8.0,34,0.00,,---,0.00,VWS V14.01,2013-04-04 21:17:00,
2013-04-04 17:20:00,44.7,18.1,30.13,South,173,8.0,12.0,34,0.00,,---,0.00,VWS V14.01,2013-04-04 21:20:00,
2013-04-04 17:22:00,44.6,18.0,30.13,SE,146,5.0,6.0,34,0.00,,---,0.00,VWS V14.01,2013-04-04 21:22:00,
2013-04-04 17:25:00,44.6,18.0,30.13,South,176,5.0,9.0,34,0.00,,---,0.00,VWS V14.01,2013-04-04 21:25:00,
2013-04-04 17:27:00,44.6,18.0,30.13,South,170,5.0,8.0,34,0.00,,---,0.00,VWS V14.01,2013-04-04 21:27:00,
2013-04-04 17:30:00,44.6,18.0,30.13,SSW,193,7.0,10.0,34,0.00,,---,0.00,VWS V14.01,2013-04-04 21:30:00,
2013-04-04 17:32:00,44.5,17.2,30.12,SSW,197,3.0,6.0,33,0.00,,---,0.00,VWS V14.01,2013-04-04 21:32:00,
2013-04-04 17:35:00,44.5,17.2,30.12,South,171,6.0,12.0,33,0.00,,---,0.00,VWS V14.01,2013-04-04 21:35:00,
2013-04-04 17:37:00,44.5,17.2,30.13,South,178,6.0,8.0,33,0.00,,---,0.00,VWS V14.01,2013-04-04 21:37:00,
2013-04-04 17:40:00,44.5,17.2,30.12,SSE,160,8.0,13.0,33,0.00,,---,0.00,VWS V14.01,2013-04-04 21:40:00,
2013-04-04 17:42:00,44.5,17.9,30.12,SSE,155,5.0,5.0,34,0.00,,---,0.00,VWS V14.01,2013-04-04 21:42:00,
2013-04-04 17:45:00,44.5,17.9,30.12,SE,140,2.0,11.0,34,0.00,,---,0.00,VWS V14.01,2013-04-04 21:45:00,
2013-04-04 17:47:00,44.5,18.6,30.12,SSE,165,5.0,7.0,35,0.00,,---,0.00,VWS V14.01,2013-04-04 21:47:00,
2013-04-04 17:50:00,44.5,18.6,30.12,South,170,6.0,11.0,35,0.00,,---,0.00,VWS V14.01,2013-04-04 21:50:00,
2013-04-04 17:52:00,44.4,17.8,30.11,South,171,7.0,7.0,34,0.00,,---,0.00,VWS V14.01,2013-04-04 21:52:00,
2013-04-04 17:55:00,44.5,17.9,30.11,South,177,7.0,11.0,34,0.00,,---,0.00,VWS V14.01,2013-04-04 21:55:00,
2013-04-04 17:57:00,44.4,17.8,30.11,South,178,1.0,2.0,34,0.00,,---,0.00,VWS V14.01,2013-04-04 21:57:00,
2013-04-04 18:00:00,44.4,17.8,30.11,South,178,2.0,10.0,34,0.00,,---,0.00,VWS V14.01,2013-04-04 22:00:00,
2013-04-04 18:02:00,44.4,17.8,30.11,SSW,193,4.0,5.0,34,0.00,,---,0.00,VWS V14.01,2013-04-04 22:02:00,
2013-04-04 18:05:00,44.4,17.8,30.11,SSW,197,5.0,8.0,34,0.00,,---,0.00,VWS V14.01,2013-04-04 22:05:00,
2013-04-04 18:07:00,44.4,17.8,30.11,South,188,4.0,6.0,34,0.00,,---,0.00,VWS V14.01,2013-04-04 22:07:00,
2013-04-04 18:10:00,44.4,17.8,30.11,SE,126,4.0,10.0,34,0.00,,---,0.00,VWS V14.01,2013-04-04 22:10:00,
2013-04-04 18:12:00,44.3,17.7,30.11,South,172,7.0,8.0,34,0.00,,---,0.00,VWS V14.01,2013-04-04 22:12:00,
2013-04-04 18:15:00,44.4,17.8,30.11,SSW,198,3.0,10.0,34,0.00,,---,0.00,VWS V14.01,2013-04-04 22:15:00,
2013-04-04 18:17:00,44.3,17.7,30.12,SSE,161,2.0,4.0,34,0.00,,---,0.00,VWS V14.01,2013-04-04 22:17:00,
2013-04-04 18:20:00,44.3,17.7,30.12,SSE,159,1.0,8.0,34,0.00,,---,0.00,VWS V14.01,2013-04-04 22:20:00,
2013-04-04 18:22:00,44.3,17.0,30.12,South,180,4.0,9.0,33,0.00,,---,0.00,VWS V14.01,2013-04-04 22:22:00,
2013-04-04 18:25:00,44.3,17.0,30.12,South,178,9.0,9.0,33,0.00,,---,0.00,VWS V14.01,2013-04-04 22:25:00,
2013-04-04 18:27:00,44.2,17.6,30.12,SSE,154,8.0,8.0,34,0.00,,---,0.00,VWS V14.01,2013-04-04 22:27:00,
2013-04-04 18:30:00,44.2,17.6,30.12,SSE,163,8.0,10.0,34,0.00,,---,0.00,VWS V14.01,2013-04-04 22:30:00,
2013-04-04 18:32:00,44.2,17.6,30.12,SSE,165,7.0,7.0,34,0.00,,---,0.00,VWS V14.01,2013-04-04 22:32:00,
2013-04-04 18:35:00,44.2,17.6,30.12,SSE,164,4.0,11.0,34,0.00,,---,0.00,VWS V14.01,2013-04-04 22:35:00,
2013-04-04 18:37:00,44.1,17.5,30.12,South,178,5.0,5.0,34,0.00,,---,0.00,VWS V14.01,2013-04-04 22:37:00,
2013-04-04 18:40:00,44.1,17.5,30.12,South,178,5.0,8.0,34,0.00,,---,0.00,VWS V14.01,2013-04-04 22:40:00,
2013-04-04 18:42:00,44.1,17.5,30.11,SSE,165,6.0,7.0,34,0.00,,---,0.00,VWS V14.01,2013-04-04 22:42:00,
2013-04-04 18:45:00,44.1,17.5,30.12,South,173,6.0,10.0,34,0.00,,---,0.00,VWS V14.01,2013-04-04 22:45:00,
2013-04-04 18:47:00,44.1,18.2,30.11,South,176,6.0,7.0,35,0.00,,---,0.00,VWS V14.01,2013-04-04 22:47:00,
2013-04-04 18:50:00,44.1,18.2,30.11,South,175,7.0,8.0,35,0.00,,---,0.00,VWS V14.01,2013-04-04 22:50:00,
2013-04-04 18:52:00,44.1,18.2,30.11,South,176,7.0,10.0,35,0.00,,---,0.00,VWS V14.01,2013-04-04 22:52:00,
2013-04-04 18:55:00,44.1,18.2,30.11,South,188,6.0,10.0,35,0.00,,---,0.00,VWS V14.01,2013-04-04 22:55:00,
2013-04-04 18:57:00,44.1,18.2,30.11,South,173,7.0,9.0,35,0.00,,---,0.00,VWS V14.01,2013-04-04 22:57:00,
2013-04-04 19:00:00,44.0,18.1,30.11,South,183,3.0,10.0,35,0.00,,---,0.00,VWS V14.01,2013-04-04 23:00:00,
2013-04-04 19:02:00,44.0,18.1,30.11,South,171,8.0,10.0,35,0.00,,---,0.00,VWS V14.01,2013-04-04 23:02:00,
2013-04-04 19:05:00,44.0,18.1,30.11,SSE,159,7.0,11.0,35,0.00,,---,0.00,VWS V14.01,2013-04-04 23:05:00,
2013-04-04 19:07:00,44.0,17.5,30.11,South,182,4.0,6.0,34,0.00,,---,0.00,VWS V14.01,2013-04-04 23:07:00,
2013-04-04 19:10:00,44.0,17.5,30.11,SSE,168,6.0,12.0,34,0.00,,---,0.00,VWS V14.01,2013-04-04 23:10:00,
2013-04-04 19:12:00,43.9,18.0,30.11,South,175,8.0,9.0,35,0.00,,---,0.00,VWS V14.01,2013-04-04 23:12:00,
2013-04-04 19:15:00,43.9,18.0,30.11,South,178,7.0,12.0,35,0.00,,---,0.00,VWS V14.01,2013-04-04 23:15:00,
2013-04-04 19:17:00,43.8,18.0,30.11,South,188,3.0,7.0,35,0.00,,---,0.00,VWS V14.01,2013-04-04 23:17:00,
2013-04-04 19:20:00,43.9,18.0,30.12,South,176,6.0,11.0,35,0.00,,---,0.00,VWS V14.01,2013-04-04 23:20:00,
2013-04-04 19:22:00,43.7,18.5,30.11,SSW,192,9.0,19.0,36,0.00,,---,0.00,VWS V14.01,2013-04-04 23:22:00,
2013-04-04 19:25:00,43.7,18.5,30.12,South,175,11.0,17.0,36,0.00,,---,0.00,VWS V14.01,2013-04-04 23:25:00,
2013-04-04 19:27:00,43.6,19.1,30.12,SSE,156,14.0,18.0,37,0.00,,---,0.00,VWS V14.01,2013-04-04 23:27:00,
2013-04-04 19:30:00,43.6,19.1,30.11,South,172,8.0,19.0,37,0.00,,---,0.00,VWS V14.01,2013-04-04 23:30:00,
2013-04-04 19:32:00,43.3,22.9,30.11,SSW,192,7.0,13.0,44,0.00,,---,0.00,VWS V14.01,2013-04-04 23:32:00,
2013-04-04 19:35:00,43.4,23.0,30.11,South,179,12.0,21.0,44,0.00,,---,0.00,VWS V14.01,2013-04-04 23:35:00,
2013-04-04 19:37:00,42.9,23.6,30.11,South,191,10.0,14.0,46,0.00,,---,0.00,VWS V14.01,2013-04-04 23:37:00,
2013-04-04 19:40:00,42.9,23.6,30.11,SSW,197,12.0,18.0,46,0.00,,---,0.00,VWS V14.01,2013-04-04 23:40:00,
2013-04-04 19:42:00,42.3,26.9,30.11,South,180,7.0,11.0,54,0.00,,---,0.00,VWS V14.01,2013-04-04 23:42:00,
2013-04-04 19:45:00,42.3,26.4,30.11,SSW,202,5.0,20.0,53,0.00,,---,0.00,VWS V14.01,2013-04-04 23:45:00,
2013-04-04 19:47:00,41.3,26.4,30.12,SSW,197,4.0,10.0,55,0.00,,---,0.00,VWS V14.01,2013-04-04 23:47:00,
2013-04-04 19:50:00,41.4,26.0,30.12,SSE,148,5.0,15.0,54,0.00,,---,0.00,VWS V14.01,2013-04-04 23:50:00,
2013-04-04 19:52:00,40.4,28.8,30.11,SSE,167,6.0,6.0,63,0.00,,---,0.00,VWS V14.01,2013-04-04 23:52:00,
2013-04-04 19:55:00,40.5,28.5,30.11,South,180,2.0,10.0,62,0.00,,---,0.00,VWS V14.01,2013-04-04 23:55:00,
2013-04-04 19:57:00,39.7,29.3,30.11,South,188,7.0,8.0,66,0.00,,---,0.00,VWS V14.01,2013-04-04 23:57:00,
2013-04-04 20:00:00,39.7,29.3,30.11,South,184,8.0,12.0,66,0.00,,---,0.00,VWS V14.01,2013-04-05 00:00:00,
2013-04-04 20:02:00,39.1,28.7,30.12,SSW,202,6.0,9.0,66,0.00,,---,0.00,VWS V14.01,2013-04-05 00:02:00,
2013-04-04 20:05:00,39.1,28.7,30.11,SSW,207,6.0,13.0,66,0.00,,---,0.00,VWS V14.01,2013-04-05 00:05:00,
2013-04-04 20:07:00,38.5,29.2,30.12,South,180,3.0,6.0,69,0.00,,---,0.00,VWS V14.01,2013-04-05 00:07:00,
2013-04-04 20:10:00,38.6,29.3,30.12,South,171,6.0,9.0,69,0.00,,---,0.00,VWS V14.01,2013-04-05 00:10:00,
2013-04-04 20:12:00,38.0,29.5,30.11,South,184,4.0,6.0,71,0.00,,---,0.00,VWS V14.01,2013-04-05 00:12:00,
2013-04-04 20:15:00,38.0,29.5,30.11,South,178,5.0,7.0,71,0.00,,---,0.00,VWS V14.01,2013-04-05 00:15:00,
2013-04-04 20:17:00,37.5,29.6,30.11,South,173,4.0,7.0,73,0.01,,---,0.01,VWS V14.01,2013-04-05 00:17:00,
2013-04-04 20:20:00,37.6,29.7,30.11,South,188,3.0,6.0,73,0.01,,---,0.01,VWS V14.01,2013-04-05 00:20:00,
2013-04-04 20:22:00,37.2,30.0,30.11,South,177,1.0,5.0,75,0.01,,---,0.01,VWS V14.01,2013-04-05 00:22:00,
2013-04-04 20:25:00,37.3,30.1,30.11,South,177,2.0,8.0,75,0.01,,---,0.01,VWS V14.01,2013-04-05 00:25:00,
2013-04-04 20:27:00,37.0,30.5,30.11,South,184,4.0,7.0,77,0.02,,---,0.02,VWS V14.01,2013-04-05 00:27:00,
2013-04-04 20:30:00,37.0,30.5,30.11,South,178,4.0,7.0,77,0.02,,---,0.02,VWS V14.01,2013-04-05 00:30:00,
2013-04-04 20:32:00,36.7,30.8,30.10,South,180,2.0,5.0,79,0.02,,---,0.02,VWS V14.01,2013-04-05 00:32:00,
2013-04-04 20:35:00,36.8,30.6,30.11,South,180,4.0,7.0,78,0.02,,---,0.02,VWS V14.01,2013-04-05 00:35:00,
2013-04-04 20:37:00,36.5,30.9,30.10,South,180,1.0,4.0,80,0.02,,---,0.02,VWS V14.01,2013-04-05 00:37:00,
2013-04-04 20:40:00,36.5,30.9,30.10,South,179,4.0,5.0,80,0.02,,---,0.02,VWS V14.01,2013-04-05 00:40:00,
2013-04-04 20:42:00,36.4,31.1,30.10,South,180,2.0,3.0,81,0.03,,---,0.03,VWS V14.01,2013-04-05 00:42:00,
2013-04-04 20:45:00,36.4,31.1,30.10,South,180,3.0,4.0,81,0.03,,---,0.03,VWS V14.01,2013-04-05 00:45:00,
2013-04-04 20:47:00,36.2,31.2,30.10,South,180,2.0,4.0,82,0.04,,---,0.04,VWS V14.01,2013-04-05 00:47:00,
2013-04-04 20:50:00,36.2,31.2,30.10,South,180,3.0,4.0,82,0.04,,---,0.04,VWS V14.01,2013-04-05 00:50:00,
2013-04-04 20:52:00,36.2,31.5,30.10,South,180,0.0,0.0,83,0.04,,---,0.04,VWS V14.01,2013-04-05 00:52:00,
2013-04-04 20:55:00,36.2,31.5,30.10,South,180,0.0,4.0,83,0.04,,---,0.04,VWS V14.01,2013-04-05 00:55:00,
2013-04-04 20:57:00,36.1,31.7,30.10,South,180,0.0,0.0,84,0.05,,---,0.05,VWS V14.01,2013-04-05 00:57:00,
2013-04-04 21:00:00,36.1,31.7,30.10,South,180,0.0,4.0,84,0.05,,---,0.05,VWS V14.01,2013-04-05 01:00:00,
2013-04-04 21:02:00,36.0,31.6,30.10,South,180,2.0,2.0,84,0.06,,---,0.06,VWS V14.01,2013-04-05 01:02:00,
2013-04-04 21:05:00,36.1,31.7,30.10,South,180,1.0,5.0,84,0.06,,---,0.06,VWS V14.01,2013-04-05 01:05:00,
2013-04-04 21:07:00,36.0,31.9,30.10,South,172,4.0,5.0,85,0.07,,---,0.07,VWS V14.01,2013-04-05 01:07:00,
2013-04-04 21:10:00,36.0,31.9,30.10,South,173,4.0,5.0,85,0.07,,---,0.07,VWS V14.01,2013-04-05 01:10:00,
2013-04-04 21:12:00,36.0,31.9,30.10,South,171,1.0,5.0,85,0.08,,---,0.08,VWS V14.01,2013-04-05 01:12:00,
2013-04-04 21:15:00,36.0,31.9,30.10,South,173,2.0,5.0,85,0.08,,---,0.08,VWS V14.01,2013-04-05 01:15:00,
2013-04-04 21:17:00,36.0,32.2,30.09,South,170,4.0,6.0,86,0.09,,---,0.10,VWS V14.01,2013-04-05 01:17:00,
2013-04-04 21:20:00,35.9,32.1,30.10,South,171,4.0,8.0,86,0.09,,---,0.09,VWS V14.01,2013-04-05 01:20:00,
2013-04-04 21:22:00,35.9,32.1,30.09,South,172,4.0,5.0,86,0.10,,---,0.11,VWS V14.01,2013-04-05 01:22:00,
2013-04-04 21:25:00,35.9,32.1,30.09,South,175,5.0,7.0,86,0.10,,---,0.11,VWS V14.01,2013-04-05 01:25:00,
2013-04-04 21:27:00,35.9,32.1,30.09,South,177,1.0,5.0,86,0.10,,---,0.12,VWS V14.01,2013-04-05 01:27:00,
2013-04-04 21:30:00,35.9,32.1,30.09,South,178,4.0,7.0,86,0.11,,---,0.12,VWS V14.01,2013-04-05 01:30:00,
2013-04-04 21:32:00,35.9,32.1,30.09,South,169,5.0,7.0,86,0.11,,---,0.13,VWS V14.01,2013-04-05 01:32:00,
2013-04-04 21:35:00,35.9,32.1,30.09,SSE,159,4.0,6.0,86,0.11,,---,0.13,VWS V14.01,2013-04-05 01:35:00,
2013-04-04 21:37:00,35.9,32.4,30.09,South,174,4.0,5.0,87,0.12,,---,0.14,VWS V14.01,2013-04-05 01:37:00,
2013-04-04 21:40:00,35.9,32.4,30.09,South,174,5.0,7.0,87,0.12,,---,0.14,VWS V14.01,2013-04-05 01:40:00,
2013-04-04 21:42:00,35.9,32.4,30.08,South,173,6.0,7.0,87,0.11,,---,0.14,VWS V14.01,2013-04-05 01:42:00,
2013-04-04 21:45:00,35.9,32.4,30.09,South,174,4.0,6.0,87,0.12,,---,0.14,VWS V14.01,2013-04-05 01:45:00,
2013-04-04 21:47:00,35.9,32.7,30.08,South,179,0.0,0.0,88,0.11,,---,0.15,VWS V14.01,2013-04-05 01:47:00,
2013-04-04 21:50:00,35.9,32.7,30.08,South,179,0.0,7.0,88,0.12,,---,0.15,VWS V14.01,2013-04-05 01:50:00,
2013-04-04 21:52:00,35.9,32.7,30.08,South,178,1.0,1.0,88,0.12,,---,0.16,VWS V14.01,2013-04-05 01:52:00,
2013-04-04 21:55:00,35.9,32.7,30.08,South,178,1.0,4.0,88,0.12,,---,0.16,VWS V14.01,2013-04-05 01:55:00,
2013-04-04 21:57:00,36.0,32.8,30.08,South,178,1.0,2.0,88,0.11,,---,0.16,VWS V14.01,2013-04-05 01:57:00,
2013-04-04 22:00:00,36.0,32.8,30.08,South,178,2.0,5.0,88,0.12,,---,0.16,VWS V14.01,2013-04-05 02:00:00,
2013-04-04 22:02:00,36.0,32.8,30.08,South,173,4.0,5.0,88,0.10,,---,0.16,VWS V14.01,2013-04-05 02:02:00,
2013-04-04 22:05:00,35.9,32.7,30.08,South,175,2.0,8.0,88,0.11,,---,0.16,VWS V14.01,2013-04-05 02:05:00,
2013-04-04 22:07:00,35.9,32.7,30.08,SSE,159,4.0,6.0,88,0.10,,---,0.17,VWS V14.01,2013-04-05 02:07:00,
2013-04-04 22:10:00,35.9,32.7,30.08,South,180,4.0,9.0,88,0.11,,---,0.17,VWS V14.01,2013-04-05 02:10:00,
2013-04-04 22:12:00,35.9,33.0,30.08,SE,146,2.0,5.0,89,0.09,,---,0.17,VWS V14.01,2013-04-05 02:12:00,
2013-04-04 22:15:00,35.9,33.0,30.08,SSE,148,5.0,9.0,89,0.10,,---,0.17,VWS V14.01,2013-04-05 02:15:00,
2013-04-04 22:17:00,35.8,32.9,30.08,SE,146,4.0,4.0,89,0.09,,---,0.18,VWS V14.01,2013-04-05 02:17:00,
2013-04-04 22:20:00,35.9,33.0,30.08,SE,146,4.0,9.0,89,0.10,,---,0.18,VWS V14.01,2013-04-05 02:20:00,
2013-04-04 22:22:00,35.8,32.9,30.08,SE,146,4.0,6.0,89,0.07,,---,0.18,VWS V14.01,2013-04-05 02:22:00,
2013-04-04 22:25:00,35.8,32.9,30.08,SSE,152,5.0,8.0,89,0.09,,---,0.18,VWS V14.01,2013-04-05 02:25:00,
2013-04-04 22:27:00,35.8,32.9,30.08,SE,146,5.0,6.0,89,0.06,,---,0.18,VWS V14.01,2013-04-05 02:27:00,
2013-04-04 22:30:00,35.8,32.9,30.08,SE,146,0.0,6.0,89,0.07,,---,0.18,VWS V14.01,2013-04-05 02:30:00,
2013-04-04 22:32:00,35.8,32.9,30.07,SSE,157,2.0,5.0,89,0.05,,---,0.18,VWS V14.01,2013-04-05 02:32:00,
2013-04-04 22:35:00,35.8,32.9,30.08,SE,146,0.0,6.0,89,0.06,,---,0.18,VWS V14.01,2013-04-05 02:35:00,
2013-04-04 22:37:00,35.7,32.8,30.07,South,169,4.0,5.0,89,0.05,,---,0.19,VWS V14.01,2013-04-05 02:37:00,
2013-04-04 22:40:00,35.7,32.8,30.07,South,169,2.0,6.0,89,0.06,,---,0.19,VWS V14.01,2013-04-05 02:40:00,
2013-04-04 22:42:00,35.7,32.8,30.06,SSE,167,0.0,0.0,89,0.06,,---,0.20,VWS V14.01,2013-04-05 02:42:00,
2013-04-04 22:45:00,35.7,32.8,30.06,SSE,167,0.0,5.0,89,0.06,,---,0.20,VWS V14.01,2013-04-05 02:45:00,
2013-04-04 22:47:00,35.7,33.1,30.06,South,171,2.0,5.0,90,0.05,,---,0.20,VWS V14.01,2013-04-05 02:47:00,
2013-04-04 22:50:00,35.7,33.1,30.06,South,171,5.0,5.0,90,0.06,,---,0.20,VWS V14.01,2013-04-05 02:50:00,
2013-04-04 22:52:00,35.7,32.8,30.06,South,171,0.0,1.0,89,0.04,,---,0.20,VWS V14.01,2013-04-05 02:52:00,
2013-04-04 22:55:00,35.7,32.8,30.06,South,171,0.0,5.0,89,0.05,,---,0.20,VWS V14.01,2013-04-05 02:55:00,
2013-04-04 22:57:00,35.8,33.2,30.05,South,171,0.0,0.0,90,0.04,,---,0.20,VWS V14.01,2013-04-05 02:57:00,
2013-04-04 23:00:00,35.8,33.2,30.06,South,171,0.0,4.0,90,0.04,,---,0.20,VWS V14.01,2013-04-05 03:00:00,
2013-04-04 23:02:00,35.9,33.3,30.05,South,171,0.0,0.0,90,0.05,,---,0.21,VWS V14.01,2013-04-05 03:02:00,
2013-04-04 23:05:00,35.9,33.3,30.05,South,171,0.0,0.0,90,0.05,,---,0.21,VWS V14.01,2013-04-05 03:05:00,
2013-04-04 23:07:00,35.8,33.2,30.04,South,171,1.0,2.0,90,0.04,,---,0.21,VWS V14.01,2013-04-05 03:07:00,
2013-04-04 23:10:00,35.8,33.2,30.05,South,171,0.0,1.0,90,0.05,,---,0.21,VWS V14.01,2013-04-05 03:10:00,
2013-04-04 23:12:00,35.7,33.1,30.04,South,171,0.0,0.0,90,0.04,,---,0.21,VWS V14.01,2013-04-05 03:12:00,
2013-04-04 23:15:00,35.7,33.1,30.04,South,171,0.0,2.0,90,0.04,,---,0.21,VWS V14.01,2013-04-05 03:15:00,
2013-04-04 23:17:00,35.8,33.2,30.04,South,171,0.0,0.0,90,0.03,,---,0.21,VWS V14.01,2013-04-05 03:17:00,
2013-04-04 23:20:00,35.8,33.2,30.04,South,171,0.0,1.0,90,0.04,,---,0.21,VWS V14.01,2013-04-05 03:20:00,
2013-04-04 23:22:00,35.8,33.2,30.03,South,171,0.0,1.0,90,0.03,,---,0.21,VWS V14.01,2013-04-05 03:22:00,
2013-04-04 23:25:00,35.8,33.2,30.03,South,171,0.0,0.0,90,0.03,,---,0.21,VWS V14.01,2013-04-05 03:25:00,
2013-04-04 23:27:00,35.8,33.2,30.04,South,171,0.0,1.0,90,0.04,,---,0.22,VWS V14.01,2013-04-05 03:27:00,
2013-04-04 23:30:00,35.8,33.2,30.04,South,171,1.0,2.0,90,0.04,,---,0.22,VWS V14.01,2013-04-05 03:30:00,
2013-04-04 23:32:00,35.8,33.2,30.03,South,171,0.0,1.0,90,0.04,,---,0.22,VWS V14.01,2013-04-05 03:32:00,
2013-04-04 23:35:00,35.8,33.2,30.03,South,171,1.0,5.0,90,0.04,,---,0.22,VWS V14.01,2013-04-05 03:35:00,
2013-04-04 23:37:00,35.8,33.4,30.03,South,172,0.0,4.0,91,0.03,,---,0.22,VWS V14.01,2013-04-05 03:37:00,
2013-04-04 23:40:00,35.8,33.4,30.04,South,172,1.0,5.0,91,0.04,,---,0.22,VWS V14.01,2013-04-05 03:40:00,
2013-04-04 23:42:00,35.8,33.4,30.03,South,174,0.0,4.0,91,0.02,,---,0.22,VWS V14.01,2013-04-05 03:42:00,
2013-04-04 23:45:00,35.8,33.4,30.03,South,174,1.0,5.0,91,0.03,,---,0.22,VWS V14.01,2013-04-05 03:45:00,
2013-04-04 23:47:00,35.8,33.4,30.03,South,175,2.0,4.0,91,0.02,,---,0.22,VWS V14.01,2013-04-05 03:47:00,
2013-04-04 23:50:00,35.8,33.4,30.03,South,174,4.0,5.0,91,0.02,,---,0.22,VWS V14.01,2013-04-05 03:50:00,
2013-04-04 23:53:00,35.8,33.4,30.02,South,175,1.0,4.0,91,0.03,,---,0.23,VWS V14.01,2013-04-05 03:53:00,
2013-04-04 23:55:00,35.7,33.3,30.02,South,175,2.0,5.0,91,0.02,,---,0.22,VWS V14.01,2013-04-05 03:55:00,
2013-04-04 23:58:00,35.7,33.3,30.01,South,175,0.0,0.0,91,0.03,,---,0.00,VWS V14.01,2013-04-05 03:58:00,